Location: Csohesd
(46.2500°N, 22.6167°E)
Time: 04:24:41
(UTC+00:00)

Feng Yun 1-1 Rocket - Pass Details

Date: 21 October 2021
Orbit: 830 x 933 km, 99.2° (Epoch: 30 November)

Event Time Altitude Azimuth Distance (km) Brightness Sun altitude
Rises 16:48:20 0° 157° (SSE) 3,408 7.1 -13.8°
Reaches altitude 10° 16:50:40 10° 155° (SSE) 2,489 6.4 -14.2°
Maximum altitude 16:56:10 73° 72° (ENE) 919 4.2 -15.1°
Drops below altitude 10° 17:01:53 10° 349° (NNW) 2,575 6.9 -16.1°
Sets 17:04:19 0° 347° (NNW) 3,535 7.6 -16.5°
